Location: Deer Lodge Site
(39.6809°N, 119.9392°W)
Time: 08:32:31
(UTC-07:00)

Amateur Radio Satellites - All Passes

Search period start: 01 May 2016 08:02
Search period end: 02 May 2016 08:02
Location: Deer Lodge Site, 39.6809°N, 119.9392°W

Satellite Date Start Highest point End Downlink Frequencies (MHz)
Time Altitude Azimuth
YUBILEINY 01 May 08:05:02 08:12:24 32° 276° (W) 08:19:47 435.215
DOVE 4 01 May 08:06:43 08:11:47 55° 99° (E) 08:16:35 437.250
LilacSat-2 01 May 08:07:39 08:10:48 25° 290° (WNW) 08:13:55 437.200
AUBIESAT-1 01 May 08:09:09 08:13:02 60° 106° (ESE) 08:16:36 437.475
BRITE-PL 01 May 08:18:43 08:23:45 33° 292° (WNW) 08:28:43 437.365/2234.400
Cubesat XI-IV 01 May 08:26:52 08:31:21 29° 294° (WNW) 08:35:50 437.490
HO-68 01 May 08:28:08 08:34:33 34° 97° (E) 08:40:55 435.675
CUTE 1.7 + AOD 2 01 May 08:28:20 08:31:49 24° 95° (E) 08:35:17 437.475
NOAA 15 01 May 08:32:14 08:35:43 18° 298° (WNW) 08:39:11 137.62
Cosmos 2491 01 May 08:46:29 08:54:18 35° 289° (WNW) 09:02:12 435.465 / 435.565
Cosmos 2504 01 May 08:49:42 08:57:04 57° 268° (W) 09:04:58 435.465 / 435.565
SEEDS 01 May 08:58:28 09:02:24 39° 98° (E) 09:06:20 437.485
SO-50 01 May 08:58:53 09:03:11 29° 312° (NW) 09:07:30 436.795
CINEMA 3 01 May 09:03:13 09:07:53 65° 101° (E) 09:12:17 145.822/145.860
COMPASS 1 01 May 09:05:12 09:08:59 33° 97° (E) 09:12:45 437.405
ISS 01 May 09:09:09 09:12:08 32° 330° (NNW) 09:15:08 145.825
RS-15 01 May 09:15:24 09:25:56 35° 255° (WSW) 09:36:25 29.354- 29.394
M-CUBED/EXP-1 PRIME 01 May 09:24:37 09:26:53 15° 302° (WNW) 09:29:04 437.505
UNISAT 6 01 May 09:28:41 09:31:45 18° 65° (ENE) 09:34:48 437.425
CANX-2 01 May 09:30:27 09:34:34 53° 286° (WNW) 09:38:40 2200.000
PRISM 01 May 09:33:05 09:35:47 17° 266° (W) 09:38:30 437.425
AAUSAT CUBESAT 2 01 May 09:37:32 09:41:39 65° 101° (E) 09:45:46 437.432
GOMX 1 01 May 09:42:09 09:43:59 12° 301° (WNW) 09:45:49 467.674
Oscar 11 01 May 09:42:38 09:46:23 28° 96° (E) 09:50:07 145.826/435.025
DOVE 4 01 May 09:45:32 09:48:57 18° 297° (WNW) 09:52:15 437.250
TIGRISAT 01 May 09:46:00 09:49:46 25° 68° (ENE) 09:53:30 435.000
AUBIESAT-1 01 May 09:46:01 09:46:55 11° 304° (WNW) 09:47:49 437.475
FUNcube-1 01 May 09:51:50 09:55:30 28° 96° (E) 09:59:05 145.935
UWE-3 01 May 09:58:14 10:02:27 56° 100° (E) 10:06:32 435.000/436.395/437.385
CUBEBUG 2 01 May 10:02:03 10:06:25 88° 293° (WNW) 10:10:37 437.445
CUTE 1.7 + AOD 2 01 May 10:04:05 10:07:35 26° 291° (WNW) 10:11:05 437.475
ANTELSAT 01 May 10:09:21 10:13:48 45° 72° (ENE) 10:18:11 437.575/2403.000
HO-68 01 May 10:15:38 10:22:19 44° 294° (WNW) 10:28:59 435.675
HUMSAT D 01 May 10:16:32 10:18:36 14° 92° (E) 10:20:39 437.325/437.525
QB50P2 01 May 10:27:11 10:29:28 14° 64° (ENE) 10:31:44 145.880/145.840
POLYITAN 1 01 May 10:29:15 10:31:35 14° 64° (ENE) 10:33:55 437.675
DUCHIFAT 1 01 May 10:29:37 10:31:31 13° 64° (ENE) 10:33:25 145.980
POPSAT HIP 1 01 May 10:32:10 10:34:37 15° 65° (ENE) 10:37:05 437.405
ZACube-1 01 May 10:32:46 10:37:01 86° 283° (WNW) 10:41:10 437.345
SEEDS 01 May 10:35:07 10:37:48 17° 294° (WNW) 10:40:28 437.485
QB50P1 01 May 10:35:18 10:38:00 17° 65° (ENE) 10:40:42 145.935-145.965
COMPASS 1 01 May 10:41:21 10:44:19 19° 292° (WNW) 10:47:16 437.405
CINEMA 3 01 May 10:42:20 10:44:22 13° 298° (WNW) 10:46:22 145.822/145.860
ISS 01 May 10:48:06 10:49:23 12° 350° (N) 10:50:40 145.825
UNISAT 6 01 May 11:03:36 11:08:06 47° 261° (W) 11:12:33 437.425
DELFI C3 01 May 11:04:55 11:08:52 62° 284° (WNW) 11:12:47 145.870
PHONESAT 2.4 01 May 11:06:43 11:09:40 39° 158° (SSE) 11:12:39 2401.200-2431.200
Cosmos 2499 01 May 11:09:35 11:13:46 15° 64° (ENE) 11:18:04 435.465 / 435.565
NANOSAT C BR1 01 May 11:09:38 11:13:34 36° 71° (ENE) 11:17:30 145.865
AAUSAT CUBESAT 2 01 May 11:15:43 11:16:34 11° 297° (WNW) 11:17:26 437.432
BUGSAT 1 01 May 11:17:03 11:20:13 21° 67° (ENE) 11:23:23 437.445
Oscar 11 01 May 11:18:57 11:22:23 24° 292° (WNW) 11:25:47 145.826/435.025
AISAT 01 May 11:21:12 11:21:50 10° 90° (E) 11:22:26 437.250
TIGRISAT 01 May 11:22:07 11:26:18 32° 263° (W) 11:30:26 435.000
FUNcube-1 01 May 11:28:21 11:31:36 22° 292° (WNW) 11:34:47 145.935
ESTCUBE 1 01 May 11:30:43 11:33:59 19° 94° (E) 11:37:13 437.505/2401.250
UWE-3 01 May 11:36:35 11:38:24 12° 297° (WNW) 11:40:10 435.000/436.395/437.385
ANTELSAT 01 May 11:47:37 11:50:41 17° 267° (W) 11:53:44 437.575/2403.000
HUMSAT D 01 May 11:50:35 11:54:27 43° 287° (WNW) 11:58:19 437.325/437.525
GONETS M04 01 May 11:51:37 12:00:14 57° 78° (ENE) 12:08:44
CUBEBUG 1 01 May 11:59:51 12:03:40 27° 96° (E) 12:07:27 437.445
QB50P2 01 May 12:00:39 12:04:49 51° 260° (W) 12:09:01 145.880/145.840
DUCHIFAT 1 01 May 12:02:32 12:06:43 57° 259° (W) 12:10:56 145.980
POLYITAN 1 01 May 12:02:47 12:06:57 50° 260° (W) 12:11:09 437.675
AIST 1 01 May 12:03:42 12:08:08 74° 83° (E) 12:12:30
POPSAT HIP 1 01 May 12:05:52 12:10:00 47° 261° (W) 12:14:10 437.405
QB50P1 01 May 12:09:21 12:13:25 42° 261° (W) 12:17:32 145.935-145.965
VELOX 1 01 May 12:22:28 12:26:49 49° 100° (E) 12:31:08 145.980
DX 1 01 May 12:25:00 12:29:15 46° 100° (E) 12:33:27 434.975-435.025
ISS 01 May 12:25:41 12:27:00 12° 11° (N) 12:28:20 145.825
JAS-2 01 May 12:28:28 12:33:46 36° 65° (ENE) 12:39:43 435.910
UKube-1 01 May 12:34:27 12:38:40 48° 100° (E) 12:42:51 .
AO-85 01 May 12:38:57 12:43:45 33° 112° (ESE) 12:48:34 145.980
PHONESAT 2.4 01 May 12:43:17 12:46:27 79° 353° (N) 12:49:37 2401.200-2431.200
NANOSAT C BR1 01 May 12:46:28 12:49:24 18° 267° (W) 12:52:21 145.865
50 SAT 01 May 12:49:25 12:53:00 56° 285° (WNW) 12:56:35 437.505
BUGSAT 1 01 May 12:51:34 12:55:22 32° 263° (W) 12:59:12 437.445
AISAT 01 May 12:54:17 12:58:45 69° 285° (WNW) 13:03:10 437.250
Gurwin Techsat 1B 01 May 12:55:22 12:58:17 15° 61° (ENE) 13:01:13 435.225
Cosmos 2499 01 May 13:00:11 13:07:55 83° 83° (E) 13:16:16 435.465 / 435.565
ESTCUBE 1 01 May 13:06:42 13:10:54 38° 289° (WNW) 13:15:05 437.505/2401.250
SPROUT 01 May 13:07:16 13:11:32 58° 101° (E) 13:15:44 437.525
Oscar 19 01 May 13:10:56 13:15:54 49° 71° (ENE) 13:20:53 437.125/150
AO-7 01 May 13:23:36 13:25:46 11° 44° (NE) 13:27:57 29.400- 29.500
CUBEBUG 1 01 May 13:36:09 13:39:50 26° 292° (WNW) 13:43:30 437.445
TISAT 1 01 May 13:47:10 13:51:16 46° 100° (E) 13:55:18 437.305
GONETS M04 01 May 13:49:17 13:56:29 30° 277° (W) 14:03:39
VELOX 1 01 May 14:00:11 14:02:52 16° 296° (WNW) 14:05:32 145.980
ISS 01 May 14:01:14 14:04:15 33° 30° (NNE) 14:07:15 145.825
DX 1 01 May 14:02:20 14:05:03 16° 295° (WNW) 14:07:45 434.975-435.025
O/OREOS (USA 219) 01 May 14:10:22 14:12:11 12° 98° (E) 14:13:58 437.305
UKube-1 01 May 14:11:46 14:14:18 15° 296° (WNW) 14:16:50 .
JAS-2 01 May 14:13:32 14:18:47 35° 266° (W) 14:24:43 435.910
AO-85 01 May 14:19:08 14:24:12 38° 309° (NW) 14:29:15 145.980
PHONESAT 2.4 01 May 14:20:13 14:23:23 89° 193° (SSW) 14:26:33 2401.200-2431.200
ITAMSAT 1 01 May 14:26:16 14:31:08 43° 70° (ENE) 14:36:00 435.822/435.867
Gurwin Techsat 1B 01 May 14:32:18 14:37:36 72° 257° (WSW) 14:42:56 435.225
ITUPSAT 1 01 May 14:32:39 14:36:37 25° 96° (E) 14:40:34 437.325
SWISSCUBE 01 May 14:42:35 14:46:59 36° 98° (E) 14:51:22 437.505
SPROUT 01 May 14:45:07 14:46:58 13° 297° (WNW) 14:48:48 437.525
CUSAT 1 01 May 14:48:22 14:50:10 14° 82° (E) 14:52:11 437.405
Oscar 19 01 May 14:51:49 14:55:27 19° 267° (W) 14:59:07 437.125/150
Cosmos 2499 01 May 14:55:24 15:00:08 18° 279° (W) 15:05:04 435.465 / 435.565
PCSat 01 May 14:58:10 15:01:14 15° 104° (ESE) 15:04:19 145.827
AO-7 01 May 15:08:43 15:16:38 52° 65° (ENE) 15:24:35 29.400- 29.500
BEESAT 01 May 15:15:43 15:20:29 74° 103° (ESE) 15:25:14 436.000
TISAT 1 01 May 15:24:07 15:26:31 15° 295° (WNW) 15:28:54 437.305
ISS 01 May 15:37:49 15:40:37 26° 226° (SW) 15:43:25 145.825
O/OREOS (USA 219) 01 May 15:46:27 15:50:59 61° 293° (WNW) 15:55:34 437.305
SO-50 01 May 15:50:32 15:54:36 27° 48° (NE) 15:58:33 436.795
PHONESAT 2.4 01 May 15:57:19 16:00:04 27° 206° (SSW) 16:02:49 2401.200-2431.200
MOZHAYETS 4 01 May 16:00:25 16:03:28 17° 93° (E) 16:06:31
ITAMSAT 1 01 May 16:06:48 16:10:45 22° 266° (W) 16:14:43 435.822/435.867
KKS-1 01 May 16:06:58 16:10:59 31° 97° (E) 16:14:56 437.445
ITUPSAT 1 01 May 16:10:13 16:14:27 32° 291° (WNW) 16:18:39 437.325
SWISSCUBE 01 May 16:20:50 16:24:33 23° 294° (WNW) 16:28:15 437.505
STARS 01 May 16:27:39 16:31:23 27° 96° (E) 16:35:06 437.465
CUSAT 1 01 May 16:28:50 16:31:46 27° 290° (WNW) 16:35:24 437.405
HORYU 2 01 May 16:31:08 16:35:27 50° 72° (ENE) 16:39:46 437.375
NOAA 15 01 May 16:35:03 16:36:42 11° 58° (ENE) 16:38:21 137.62
PCSat 01 May 16:38:36 16:44:00 68° 301° (WNW) 16:49:26 145.827
BEESAT 01 May 16:55:45 16:57:38 12° 299° (WNW) 16:59:31 436.000
DANDE 01 May 16:59:31 17:01:57 26° 288° (WNW) 17:04:50 436.750
Cosmos 2491 01 May 17:00:52 17:07:40 24° 66° (ENE) 17:14:23 435.465 / 435.565
AO-7 01 May 17:02:18 17:09:36 34° 262° (W) 17:16:58 29.400- 29.500
LilacSat-2 01 May 17:17:24 17:17:55 10° 64° (ENE) 17:18:25 437.200
CUTE-I 01 May 17:25:04 17:29:07 23° 64° (ENE) 17:33:09 437.470
NOAA 18 01 May 17:25:34 17:30:23 32° 66° (ENE) 17:35:12 137.9125
SO-50 01 May 17:30:52 17:35:09 35° 246° (WSW) 17:39:15 436.795
GOMX 1 01 May 17:33:58 17:35:41 12° 59° (ENE) 17:37:26 467.674
MOZHAYETS 4 01 May 17:36:30 17:40:48 42° 288° (WNW) 17:45:07
CUBESAT XI-V 01 May 17:41:12 17:44:57 23° 94° (E) 17:48:41 437.345
KKS-1 01 May 17:43:49 17:47:22 23° 293° (WNW) 17:50:54 437.445
BRITE-PL 01 May 17:50:21 17:54:33 31° 68° (ENE) 17:59:04 437.365/2234.400
STARS 01 May 18:03:59 18:07:40 26° 292° (WNW) 18:11:19 437.465
Cubesat XI-IV 01 May 18:07:38 18:12:49 54° 72° (ENE) 18:18:01 437.490
HORYU 2 01 May 18:09:48 18:12:16 15° 268° (W) 18:14:45 437.375
NOAA 15 01 May 18:10:23 18:15:38 87° 76° (ENE) 18:20:58 137.62
PCSat 01 May 18:26:15 18:28:26 12° 320° (NW) 18:30:37 145.827
M-CUBED/EXP-1 PRIME 01 May 18:33:24 18:38:00 53° 68° (ENE) 18:42:34 437.505
BEESAT 3 01 May 18:41:21 18:45:03 41° 116° (ESE) 18:48:47 437.485
BEESAT 2 01 May 18:46:33 18:49:55 27° 114° (ESE) 18:53:19 435.950
LilacSat-2 01 May 18:47:52 18:51:42 59° 259° (W) 18:55:33 437.200
AUBIESAT-1 01 May 18:53:12 18:57:50 71° 71° (ENE) 19:02:26 437.475
Cosmos 2491 01 May 18:56:33 19:05:20 73° 267° (W) 19:14:02 435.465 / 435.565
HO-68 01 May 18:56:49 19:02:21 25° 59° (ENE) 19:07:53 435.675
CUTE-I 01 May 19:03:44 19:08:50 46° 261° (W) 19:13:57 437.470
NOAA 18 01 May 19:06:00 19:10:57 33° 263° (W) 19:15:55 137.9125
YUBILEINY 01 May 19:07:02 19:15:36 63° 91° (E) 19:24:08 435.215
GOMX 1 01 May 19:07:54 19:12:51 90° 273° (W) 19:18:10 467.674
DOVE 4 01 May 19:10:28 19:15:20 50° 72° (ENE) 19:20:25 437.250
CUBESAT XI-V 01 May 19:18:08 19:22:21 34° 290° (WNW) 19:26:35 437.345
CUTE 1.7 + AOD 2 01 May 19:21:01 19:23:43 17° 66° (ENE) 19:26:25 437.475
BRITE-PL 01 May 19:29:00 19:33:01 27° 267° (W) 19:37:21 437.365/2234.400
Cosmos 2504 01 May 19:36:48 19:41:49 20° 82° (E) 19:46:46 435.465 / 435.565
Cubesat XI-IV 01 May 19:49:36 19:53:12 18° 268° (W) 19:56:48 437.490
SEEDS 01 May 19:49:43 19:53:08 25° 69° (ENE) 19:56:33 437.485
NOAA 15 01 May 19:55:25 19:56:04 10° 271° (W) 19:56:43 137.62
COMPASS 1 01 May 19:55:43 19:58:49 21° 68° (ENE) 20:01:56 437.405
CINEMA 3 01 May 20:02:59 20:07:52 55° 73° (ENE) 20:12:47 145.822/145.860
STRAND 1 01 May 20:05:04 20:10:07 60° 101° (ESE) 20:15:09 437.568
AIST 2 01 May 20:09:20 20:11:38 15° 109° (ESE) 20:13:55 435.215
M-CUBED/EXP-1 PRIME 01 May 20:09:45 20:12:44 17° 263° (W) 20:15:44 437.505
BEESAT 3 01 May 20:20:07 20:22:56 18° 313° (NW) 20:25:47 437.485
CANX-2 01 May 20:21:54 20:26:08 86° 259° (WSW) 20:30:21 2200.000
BEESAT 2 01 May 20:24:20 20:27:42 26° 310° (NW) 20:31:07 435.950
AAUSAT CUBESAT 2 01 May 20:26:57 20:30:44 37° 72° (ENE) 20:34:32 437.432
AUBIESAT-1 01 May 20:30:54 20:32:40 12° 265° (W) 20:34:26 437.475
Oscar 11 01 May 20:37:02 20:40:15 21° 67° (ENE) 20:43:29 145.826/435.025
HO-68 01 May 20:42:23 20:49:29 65° 257° (WSW) 20:56:37 435.675
FUNcube-1 01 May 20:46:34 20:50:06 23° 68° (ENE) 20:53:36 145.935
DOVE 4 01 May 20:49:44 20:53:18 19° 269° (W) 20:56:58 437.250
UWE-3 01 May 20:53:49 20:58:12 42° 72° (ENE) 21:02:32 435.000/436.395/437.385
CUTE 1.7 + AOD 2 01 May 20:55:16 20:59:14 40° 262° (W) 21:03:13 437.475
Cosmos 2491 01 May 20:57:25 21:00:28 12° 286° (WNW) 21:03:31 435.465 / 435.565
JUGNU 01 May 20:57:41 20:57:59 10° 183° (S) 20:58:18 437.505
CUBEBUG 2 01 May 20:58:24 21:03:08 69° 75° (ENE) 21:07:48 437.445
YUBILEINY 01 May 21:05:46 21:12:57 28° 291° (WNW) 21:20:09 435.215
AO-85 01 May 21:12:09 21:15:57 22° 44° (NE) 21:19:31 145.980
PRISM 01 May 21:13:41 21:17:51 66° 101° (ESE) 21:22:00 437.425
RS-15 01 May 21:24:30 21:34:54 47° 109° (ESE) 21:45:49 29.354- 29.394
SEEDS 01 May 21:25:17 21:28:45 25° 265° (W) 21:32:13 437.485
ZACube-1 01 May 21:27:02 21:31:33 66° 74° (ENE) 21:36:00 437.345
Cosmos 2504 01 May 21:27:14 21:34:29 64° 280° (W) 21:41:36 435.465 / 435.565
COMPASS 1 01 May 21:30:34 21:34:12 30° 264° (W) 21:37:51 437.405
CINEMA 3 01 May 21:42:10 21:45:17 16° 269° (W) 21:48:26 145.822/145.860
STRAND 1 01 May 21:45:37 21:48:47 17° 297° (WNW) 21:51:58 437.568
AIST 2 01 May 21:45:41 21:49:42 49° 305° (NW) 21:53:44 435.215
DELFI C3 01 May 21:49:47 21:53:42 64° 75° (ENE) 21:57:36 145.870
AAUSAT CUBESAT 2 01 May 22:03:47 22:06:22 16° 267° (W) 22:08:58 437.432
Oscar 11 01 May 22:12:16 22:16:10 33° 263° (W) 22:20:04 145.826/435.025
FUNcube-1 01 May 22:22:04 22:26:09 33° 263° (W) 22:30:12 145.935
ESTCUBE 1 01 May 22:30:05 22:32:56 17° 65° (ENE) 22:35:47 437.505/2401.250
UWE-3 01 May 22:31:37 22:34:48 18° 267° (W) 22:37:58 435.000/436.395/437.385
CUBEBUG 2 01 May 22:38:31 22:40:09 12° 270° (W) 22:41:47 437.445
HUMSAT D 01 May 22:40:21 22:44:36 74° 259° (W) 22:48:48 437.325/437.525
PRISM 01 May 22:51:32 22:52:36 11° 298° (WNW) 22:53:41 437.425
AO-85 01 May 22:52:13 22:56:42 45° 245° (WSW) 23:00:47 145.980
CUBEBUG 1 01 May 22:55:24 22:58:42 21° 67° (ENE) 23:02:02 437.445
UNISAT 6 01 May 22:56:22 23:00:22 36° 97° (E) 23:04:18 437.425
GONETS M04 01 May 23:02:50 23:04:42 11° 73° (ENE) 23:06:34
ZACube-1 01 May 23:06:53 23:08:13 11° 270° (W) 23:09:32 437.345
TIGRISAT 01 May 23:14:07 23:18:23 55° 100° (E) 23:22:33 435.000
VELOX 1 01 May 23:18:53 23:22:59 39° 71° (ENE) 23:27:09 145.980
DX 1 01 May 23:19:40 23:23:38 36° 71° (ENE) 23:27:39 434.975-435.025
50 SAT 01 May 23:27:00 23:30:34 53° 74° (ENE) 23:34:08 437.505
UKube-1 01 May 23:28:09 23:32:06 36° 70° (ENE) 23:36:04 .
RS-15 01 May 23:36:05 23:47:08 54° 312° (NW) 23:58:50 29.354- 29.394
ANTELSAT 01 May 23:38:26 23:42:46 73° 285° (WNW) 23:47:01 437.575/2403.000
PCSat 01 May 23:45:39 23:48:26 14° 41° (NE) 23:51:13 145.827
QB50P2 01 May 23:46:48 23:50:23 26° 96° (E) 23:53:55 145.880/145.840
DUCHIFAT 1 01 May 23:48:06 23:51:28 23° 95° (E) 23:54:49 145.980
POLYITAN 1 01 May 23:48:56 23:52:32 26° 96° (E) 23:56:05 437.675
AISAT 01 May 23:50:26 23:54:53 87° 252° (WSW) 23:59:23 437.250
POPSAT HIP 1 01 May 23:51:46 23:55:26 28° 96° (E) 23:59:03 437.405
QB50P1 01 May 23:55:02 23:58:49 30° 97° (E) 00:02:32 145.935-145.965
SPROUT 01 May 23:59:55 00:03:56 39° 72° (ENE) 00:07:59 437.525
ESTCUBE 1 02 May 00:05:04 00:09:22 45° 261° (W) 00:13:41 437.505/2401.250
O/OREOS (USA 219) 02 May 00:18:46 00:22:17 22° 58° (ENE) 00:25:45 437.305
NANOSAT C BR1 02 May 00:30:07 00:34:22 77° 103° (ESE) 00:38:33 145.865
CUBEBUG 1 02 May 00:30:49 00:34:46 33° 263° (W) 00:38:47 437.445
AIST 1 02 May 00:32:01 00:36:06 44° 93° (E) 00:40:15
UNISAT 6 02 May 00:33:47 00:36:50 19° 294° (WNW) 00:39:49 437.425
BUGSAT 1 02 May 00:34:00 00:37:54 36° 98° (E) 00:41:44 437.445
TISAT 1 02 May 00:38:03 00:41:47 31° 70° (ENE) 00:45:34 437.305
GONETS M04 02 May 00:50:58 00:59:41 67° 93° (E) 01:08:27
TIGRISAT 02 May 00:52:33 00:54:34 13° 297° (WNW) 00:56:34 435.000
VELOX 1 02 May 00:56:34 00:59:36 18° 267° (W) 01:02:40 145.980
DX 1 02 May 00:56:48 00:59:55 19° 266° (W) 01:03:04 434.975-435.025
UKube-1 02 May 01:05:13 01:08:15 19° 266° (W) 01:11:18 .
CUSAT 1 02 May 01:18:44 01:24:33 25° 70° (ENE) 01:30:51 437.405
JAS-2 02 May 01:22:01 01:29:18 41° 96° (E) 01:36:31 435.910
QB50P2 02 May 01:22:37 01:26:05 25° 291° (WNW) 01:29:32 145.880/145.840
DUCHIFAT 1 02 May 01:23:32 01:27:08 28° 291° (WNW) 01:30:42 145.980
Oscar 19 02 May 01:24:17 01:27:51 18° 93° (E) 01:31:23 437.125/150
POLYITAN 1 02 May 01:24:47 01:28:14 24° 291° (WNW) 01:31:38 437.675
PCSat 02 May 01:27:16 01:32:44 80° 61° (ENE) 01:38:09 145.827
POPSAT HIP 1 02 May 01:27:42 01:31:05 23° 292° (WNW) 01:34:27 437.405
QB50P1 02 May 01:31:10 01:34:24 21° 293° (WNW) 01:37:36 145.935-145.965
Cosmos 2499 02 May 01:36:17 01:43:19 69° 94° (E) 01:50:21 435.465 / 435.565
SPROUT 02 May 01:37:14 01:40:02 17° 267° (W) 01:42:53 437.525
ITUPSAT 1 02 May 01:38:41 01:42:42 28° 68° (ENE) 01:46:43 437.325
SWISSCUBE 02 May 01:48:11 01:52:34 38° 71° (ENE) 01:56:59 437.505
DANDE 02 May 01:52:27 01:57:26 22° 71° (ENE) 02:03:10 436.750
RS-15 02 May 01:54:35 02:03:18 23° 343° (NNW) 02:12:18 29.354- 29.394
O/OREOS (USA 219) 02 May 01:57:39 02:01:46 36° 255° (WSW) 02:05:51 437.305
BUGSAT 1 02 May 02:10:07 02:12:59 18° 294° (WNW) 02:15:49 437.445
AIST 1 02 May 02:11:33 02:13:58 15° 289° (WNW) 02:16:24
TISAT 1 02 May 02:14:15 02:17:28 21° 265° (W) 02:20:44 437.305
BEESAT 02 May 02:21:05 02:25:50 77° 76° (ENE) 02:30:36 436.000
ITAMSAT 1 02 May 02:41:05 02:44:12 16° 92° (E) 02:47:18 435.822/435.867
Gurwin Techsat 1B 02 May 02:49:24 02:54:33 49° 100° (E) 02:59:40 435.225
GONETS M04 02 May 02:50:06 02:57:12 26° 292° (WNW) 03:04:19
BEESAT 3 02 May 02:59:47 03:02:50 21° 48° (NE) 03:05:51 437.485
CUSAT 1 02 May 02:59:51 03:07:01 69° 265° (W) 03:15:02 437.405
MOZHAYETS 4 02 May 03:02:06 03:04:52 16° 65° (ENE) 03:07:39
Oscar 19 02 May 03:02:24 03:07:27 51° 288° (WNW) 03:12:27 437.125/150
KKS-1 02 May 03:04:20 03:08:05 27° 68° (ENE) 03:11:51 437.445
BEESAT 2 02 May 03:05:45 03:08:12 15° 45° (NE) 03:10:38 435.950
JAS-2 02 May 03:06:59 03:14:13 44° 293° (WNW) 03:21:29 435.910
PCSat 02 May 03:13:03 03:15:22 13° 258° (WSW) 03:17:41 145.827
AO-7 02 May 03:13:15 03:17:52 16° 90° (E) 03:22:27 29.400- 29.500
ITUPSAT 1 02 May 03:16:17 03:20:26 30° 263° (W) 03:24:36 437.325
STARS 02 May 03:23:44 03:27:11 23° 67° (ENE) 03:30:39 437.465
SWISSCUBE 02 May 03:26:55 03:30:29 21° 266° (W) 03:34:04 437.505
Cosmos 2499 02 May 03:32:17 03:37:07 19° 293° (WNW) 03:41:58 435.465 / 435.565
DANDE 02 May 03:33:59 03:40:32 72° 263° (W) 03:48:33 436.750
BEESAT 02 May 04:03:47 04:04:09 10° 271° (W) 04:04:29 436.000
RS-15 02 May 04:12:44 04:21:54 24° 20° (NNE) 04:31:12 29.354- 29.394
ITAMSAT 1 02 May 04:18:56 04:24:01 59° 288° (WNW) 04:29:06 435.822/435.867
Gurwin Techsat 1B 02 May 04:30:12 04:34:08 21° 296° (WNW) 04:38:02 435.225
AIST 2 02 May 04:31:44 04:32:36 11° 40° (NE) 04:33:27 435.215
BEESAT 3 02 May 04:37:00 04:40:38 35° 245° (WSW) 04:44:13 437.485
MOZHAYETS 4 02 May 04:37:11 04:41:37 50° 261° (W) 04:46:04
KKS-1 02 May 04:40:44 04:44:33 27° 264° (W) 04:48:24 437.445
BEESAT 2 02 May 04:42:29 04:46:23 54° 242° (WSW) 04:50:15 435.950
CUBESAT XI-V 02 May 04:44:07 04:47:31 21° 67° (ENE) 04:50:57 437.345
CUSAT 1 02 May 04:45:34 04:48:12 12° 279° (W) 04:50:55 437.405
STARS 02 May 04:59:22 05:03:21 32° 263° (W) 05:07:21 437.465
AO-7 02 May 05:03:18 05:11:41 85° 107° (ESE) 05:20:03 29.400- 29.500
YUBILEINY 02 May 05:18:42 05:26:02 29° 69° (ENE) 05:33:19 435.215
DANDE 02 May 05:20:27 05:22:44 12° 276° (W) 05:25:07 436.750
NOAA 18 02 May 05:49:56 05:52:26 13° 91° (E) 05:54:55 137.9125
BRITE-PL 02 May 05:57:06 05:59:51 14° 88° (E) 06:02:33 437.365/2234.400
HORYU 2 02 May 05:59:08 06:03:33 72° 285° (WNW) 06:07:56 437.375
Cosmos 2491 02 May 06:01:39 06:08:40 28° 82° (E) 06:15:43 435.465 / 435.565
AIST 2 02 May 06:07:36 06:11:46 81° 59° (ENE) 06:15:54 435.215
CUBESAT XI-V 02 May 06:20:24 06:24:39 37° 263° (W) 06:28:57 437.345
LilacSat-2 02 May 06:23:21 06:25:36 15° 93° (E) 06:27:51 437.200
RS-15 02 May 06:25:55 06:37:59 57° 50° (NE) 06:50:01 29.354- 29.394
Cubesat XI-IV 02 May 06:26:21 06:30:30 23° 94° (E) 06:34:38 437.490
NOAA 15 02 May 06:26:39 06:31:29 35° 97° (E) 06:36:19 137.62
ISS 02 May 06:41:39 06:43:27 14° 130° (SE) 06:45:16 145.825
AO-7 02 May 06:57:31 07:03:28 23° 307° (NW) 07:09:27 29.400- 29.500
GOMX 1 02 May 07:11:02 07:15:55 33° 95° (E) 07:20:35 467.674
DOVE 4 02 May 07:12:03 07:15:00 15° 89° (E) 07:17:50 437.250
YUBILEINY 02 May 07:14:49 07:23:18 60° 269° (W) 07:31:47 435.215
Cosmos 2504 02 May 07:19:24 07:26:32 42° 76° (ENE) 07:34:08 435.465 / 435.565
STRAND 1 02 May 07:20:01 07:25:07 79° 74° (ENE) 07:30:13 437.568
CUTE-I 02 May 07:21:15 07:26:36 76° 103° (ESE) 07:31:55 437.470
NOAA 18 02 May 07:28:10 07:33:37 75° 287° (WNW) 07:39:03 137.9125
BRITE-PL 02 May 07:33:09 07:38:53 80° 285° (WNW) 07:44:29 437.365/2234.400
SO-50 02 May 07:43:06 07:48:01 89° 121° (ESE) 07:52:59 436.795
M-CUBED/EXP-1 PRIME 02 May 07:49:05 07:52:46 38° 103° (ESE) 07:56:10 437.505
